Theta_e
321 322 322 324 324 325 325 325 328 329 329 328 328 331 332 334 333 330 330 322 317 324 325 323 324 323 323 322 321 321 320 318 318 318 319 321 321 322 323 324 324 324 325 325 324 322 321 320 320 319 318 318 318 318 318 317 315 314 318 322 325 325 325 324 324 323 322 322 322 323 323 323 322 321 319 318 317 317 316 316 315 314 313 313 312 311
322 321 320 322 323 324 325 324 326 329 328 328 329 332 332 333 333 328 326 321 316 323 328 325 323 323 322 322 320 319 320 319 318 318 319 320 321 322 322 323 325 325 324 324 324 323 323 323 323 322 320 319 318 318 318 318 316 314 314 316 320 323 324 325 325 325 324 324 324 324 324 324 323 321 319 318 318 318 317 317 317 316 316 315 315 313
323 322 321 320 321 323 324 323 325 328 327 328 329 331 333 330 330 327 322 318 317 323 329 324 322 322 321 321 320 318 319 321 320 320 321 321 321 321 322 323 325 326 326 324 324 325 325 325 324 324 323 322 320 319 318 317 317 316 315 314 315 317 320 322 323 324 324 325 325 325 324 323 323 321 320 320 320 320 320 319 318 318 317 317 316 316
324 323 321 320 321 322 324 323 325 328 326 327 328 329 332 329 330 332 324 316 317 321 322 320 320 321 321 322 320 317 318 320 321 321 321 322 322 322 324 324 325 326 327 326 325 326 326 326 324 323 324 324 323 321 319 318 318 317 315 314 313 314 315 317 319 321 322 323 323 324 324 323 323 322 322 321 321 320 320 320 320 319 318 318 317 317
323 322 321 320 321 322 323 324 325 327 326 326 327 328 332 330 329 331 325 318 318 319 317 318 323 325 325 327 324 320 317 317 319 319 319 320 321 323 323 323 325 325 326 326 326 326 326 326 325 323 323 324 324 323 321 320 318 317 315 315 314 313 313 314 315 317 319 321 322 322 323 323 323 322 321 320 319 319 319 318 319 319 319 318 318 318
323 321 320 320 321 321 323 324 325 327 327 327 327 327 331 331 327 324 323 324 327 327 320 320 328 332 333 333 329 325 322 319 317 315 317 319 320 321 320 323 325 325 326 326 326 326 325 326 326 323 322 323 324 324 323 322 320 319 317 316 315 314 314 313 313 314 316 317 318 320 320 320 320 320 318 317 316 316 316 317 317 318 318 318 319 319
322 320 320 320 321 322 322 323 324 325 327 328 327 328 330 329 326 324 325 330 333 332 322 318 327 334 331 331 331 330 329 326 320 315 315 317 318 318 318 321 324 325 326 326 326 326 325 326 326 325 323 322 323 324 323 322 321 320 319 317 316 315 314 314 313 313 314 315 315 316 316 316 317 316 315 314 315 315 315 316 316 316 317 318 318 319
322 321 321 320 321 323 322 323 324 324 327 328 325 328 330 327 327 326 328 331 331 329 322 317 323 329 327 327 329 329 331 331 325 320 317 315 317 319 319 321 323 325 327 327 326 326 325 326 326 326 325 323 323 322 322 323 322 321 320 318 316 316 315 315 315 314 314 314 314 314 314 314 314 314 313 314 314 315 315 316 316 316 316 316 317 317
322 321 321 321 322 323 323 324 323 323 328 327 322 325 328 327 328 328 328 330 326 328 328 320 320 328 329 326 325 323 327 329 327 325 321 317 317 319 320 322 323 324 326 326 327 327 326 326 326 327 326 325 323 320 320 322 323 322 320 318 317 316 316 315 315 315 314 314 314 314 314 314 314 313 313 314 314 315 315 315 315 315 315 315 316 316
322 322 321 321 322 323 324 324 323 325 328 323 319 322 324 325 326 327 329 330 325 328 333 326 321 328 332 329 326 323 326 327 325 324 322 318 319 321 321 322 322 322 323 324 325 326 326 326 326 326 326 326 325 322 320 320 320 320 319 318 317 317 317 316 315 315 315 315 314 314 314 314 314 314 314 315 315 314 314 314 314 314 314 314 315 315
321 321 321 322 322 323 324 323 323 325 324 319 321 324 324 326 328 328 329 328 328 330 332 328 323 327 332 332 329 326 326 328 326 326 325 320 320 321 321 321 321 321 321 322 323 324 325 326 325 325 325 325 325 324 323 320 318 318 318 317 317 317 317 316 316 316 315 315 315 314 314 314 314 314 314 314 314 314 314 314 313 313 314 314 314 314
320 321 322 323 322 321 324 324 321 321 319 321 327 329 327 328 328 329 326 325 329 333 330 326 322 324 330 333 332 329 328 329 327 327 330 324 319 320 320 320 320 320 320 321 322 322 323 324 324 323 323 324 324 325 325 323 321 319 318 317 317 317 317 317 317 316 316 315 315 315 314 314 314 314 314 313 313 313 313 313 313 313 314 314 314 315
320 322 323 323 322 322 324 325 322 319 320 324 328 328 329 330 329 330 328 327 331 330 324 322 321 324 328 328 329 329 327 328 323 320 323 322 319 320 321 320 320 320 321 320 321 322 322 323 323 322 321 323 324 324 325 325 324 323 321 320 318 318 317 317 317 316 316 315 315 315 314 314 314 314 314 313 313 313 313 313 314 313 314 314 314 314
319 320 322 322 322 323 324 325 324 322 323 325 326 327 329 330 329 330 329 328 329 327 320 319 322 326 328 326 325 326 325 324 320 317 319 319 319 321 321 321 321 321 321 321 321 321 322 322 322 321 321 321 322 323 324 324 325 324 324 323 321 320 318 318 318 317 316 316 315 316 316 316 315 315 314 314 314 314 314 313 313 313 313 314 314 314
320 321 322 323 323 323 323 324 324 323 324 326 326 327 328 329 331 330 329 330 330 327 321 320 325 329 331 329 324 320 319 319 319 319 318 318 319 320 320 320 321 320 320 321 320 320 321 321 321 321 321 321 321 321 321 322 323 324 324 325 324 322 320 319 318 318 317 316 316 317 317 316 316 315 315 315 314 315 315 314 314 313 313 313 314 314
321 324 324 323 322 323 324 323 322 323 325 326 328 329 328 329 332 329 327 328 330 330 324 322 326 328 329 329 322 318 318 317 317 317 316 317 318 318 318 319 319 319 319 319 320 320 321 321 321 320 319 320 320 321 321 321 321 322 323 323 324 324 322 320 319 318 317 317 317 318 317 316 316 315 315 315 315 315 315 315 314 314 314 314 314 315
321 324 323 322 323 324 324 323 322 324 326 327 328 329 326 327 332 330 324 322 326 331 328 324 327 328 329 328 323 322 325 322 321 319 314 316 318 317 318 319 319 320 319 319 320 321 321 321 320 319 319 319 320 320 320 320 320 321 322 322 323 324 323 321 320 319 318 318 319 319 318 317 316 316 315 315 315 315 316 316 316 315 315 315 315 315
324 324 322 323 325 324 321 322 322 321 323 327 328 326 324 325 330 332 329 327 327 330 329 325 327 330 332 331 326 326 326 325 327 323 314 315 318 318 319 321 320 319 319 318 319 320 320 320 319 319 319 319 320 320 320 320 320 321 321 321 321 322 322 321 320 319 319 319 320 319 318 317 317 316 316 315 315 316 316 316 316 316 316 315 315 316
325 325 322 322 324 322 320 322 324 320 319 324 325 323 326 329 328 329 330 331 328 329 331 327 324 327 329 328 327 329 328 328 329 325 320 319 317 316 318 319 319 318 318 318 319 319 319 319 319 319 319 319 320 320 320 321 321 321 321 321 321 321 321 321 320 319 319 320 320 319 318 317 317 317 316 316 316 316 316 316 317 317 316 316 316 316
324 327 325 322 322 322 322 324 327 324 320 322 322 323 327 330 327 328 330 332 330 329 330 328 325 326 327 324 326 328 328 328 327 327 327 322 316 316 319 319 318 318 318 318 319 319 318 318 318 318 318 319 319 320 321 321 321 321 321 320 320 321 321 321 320 319 319 319 319 318 317 317 317 317 316 316 316 316 317 317 317 317 316 316 317 317
323 326 326 321 320 323 325 325 326 326 323 323 324 325 326 326 325 329 330 330 330 328 329 330 328 328 326 323 324 325 325 326 327 329 329 321 316 318 319 318 318 318 317 318 318 318 318 317 318 318 318 319 319 319 319 320 320 320 320 320 320 320 320 321 320 319 319 318 318 318 318 318 318 317 316 316 316 316 317 317 317 317 316 316 316 316
323 325 325 322 321 324 326 325 324 325 323 324 325 324 325 325 326 329 328 326 326 326 329 330 327 326 327 322 320 322 325 325 322 323 323 318 315 316 317 317 318 317 318 318 317 318 319 318 318 318 318 318 318 318 318 318 319 319 319 320 320 320 321 320 320 319 319 319 319 319 319 319 318 317 316 316 316 317 317 317 317 317 316 316 316 316
323 325 323 321 322 323 322 321 323 325 323 324 324 324 325 325 326 327 326 326 327 325 326 327 326 327 325 323 323 322 321 319 316 314 314 313 314 315 315 316 317 317 318 318 317 318 318 319 319 319 318 318 318 318 318 318 318 318 318 318 319 320 320 320 320 320 320 320 320 320 319 318 318 317 317 317 317 317 317 317 317 317 317 316 316 315
322 324 323 321 321 320 319 320 323 324 323 325 325 324 325 325 324 326 326 327 327 326 325 326 328 326 320 321 323 317 312 312 312 311 310 310 313 315 315 315 316 316 317 317 317 318 318 318 319 318 319 318 318 317 316 316 316 317 317 317 317 318 318 318 318 317 318 318 317 317 317 317 317 317 317 317 317 317 317 317 317 317 317 316 316 315
322 324 323 323 323 322 322 323 324 323 324 326 325 324 324 324 324 327 327 325 325 327 326 327 328 325 319 318 316 316 319 318 312 310 311 311 313 315 315 315 316 316 317 317 318 318 319 318 318 318 319 317 316 315 315 315 316 316 316 316 316 316 316 316 316 315 315 315 314 314 314 315 315 315 316 316 317 317 317 317 317 316 316 316 315 314
324 325 323 324 325 325 326 327 326 325 324 325 325 323 323 324 325 325 325 324 325 326 326 327 327 322 318 315 315 319 325 324 315 310 310 311 312 315 315 315 316 316 317 318 318 318 318 317 318 318 317 315 314 314 314 315 315 315 315 315 315 315 315 315 314 314 313 313 313 313 313 314 313 313 314 314 315 315 316 316 316 315 315 314 312 311
325 325 322 323 325 325 326 327 326 325 325 324 324 323 323 323 324 324 324 324 324 324 324 325 325 323 319 315 316 318 322 327 324 315 310 312 314 314 315 316 316 316 317 317 318 318 317 317 317 316 315 314 314 313 313 313 313 314 314 314 314 314 314 314 314 313 312 312 312 312 313 313 313 313 313 313 313 313 313 313 313 313 312 311 311 310
324 323 321 322 324 324 326 327 325 324 324 323 324 323 323 323 323 324 324 324 323 324 324 324 324 325 323 321 321 323 324 330 329 317 312 315 315 315 316 316 316 316 316 316 316 317 316 316 316 315 314 314 313 313 313 314 313 314 314 314 314 314 313 313 313 313 312 312 311 311 311 312 312 312 311 311 311 311 311 312 312 311 311 310 310 310
322 322 321 322 322 322 325 327 325 324 323 323 323 323 322 323 323 323 324 323 323 325 324 323 324 325 325 326 328 327 324 324 323 317 314 315 315 315 316 316 317 316 315 315 315 315 316 315 315 315 315 315 315 314 314 314 314 315 316 316 315 315 314 313 311 311 311 311 311 311 311 311 311 311 311 311 311 310 310 310 311 311 311 310 310 310
321 322 321 321 322 322 324 326 325 323 323 323 322 322 322 323 322 323 323 323 323 324 323 323 326 324 322 324 326 323 319 318 318 316 314 314 314 315 316 316 317 317 315 314 315 314 315 315 315 316 316 315 315 314 314 315 316 317 318 318 318 317 316 315 313 312 311 311 311 311 311 310 310 310 310 310 311 310 310 310 310 311 311 310 311 310
320 321 321 321 322 322 322 324 324 323 323 323 322 322 322 322 323 322 323 323 323 324 323 322 324 323 320 320 320 317 315 316 316 313 312 314 314 314 315 316 316 317 315 315 315 315 315 315 316 316 316 315 315 315 316 317 318 318 318 318 317 317 317 317 316 314 312 311 311 311 311 311 310 311 311 310 311 310 310 310 310 310 311 310 310 310
318 320 321 321 321 322 321 322 323 324 323 323 323 323 322 322 323 322 322 323 323 323 324 323 323 322 320 320 319 316 316 318 317 313 313 315 315 314 315 316 316 317 316 315 315 315 315 315 315 315 315 315 315 316 317 318 317 318 318 317 317 317 317 317 317 316 313 311 311 311 311 311 310 311 311 311 311 310 310 310 310 310 311 310 310 310
318 319 321 320 321 322 321 320 321 323 323 323 322 322 322 322 322 322 322 322 322 322 323 324 323 322 321 321 320 318 318 319 318 315 314 315 316 315 316 316 317 317 317 316 316 316 316 315 315 316 315 316 316 317 318 317 317 317 317 317 317 317 317 317 317 316 314 312 311 310 310 311 311 310 311 310 310 310 310 310 310 310 310 309 310 309
318 319 320 320 321 323 321 319 320 322 323 324 322 320 321 321 321 322 322 321 321 321 321 322 322 322 321 320 319 318 317 318 319 318 316 316 316 317 317 317 317 317 317 317 317 317 317 317 316 316 316 317 317 317 317 317 317 317 317 317 317 317 317 317 317 316 314 312 311 311 310 311 310 310 310 310 310 310 310 310 310 310 310 310 310 309
319 319 319 319 321 321 319 318 321 323 323 323 321 319 320 320 320 321 321 321 321 321 321 321 321 321 319 317 317 317 316 317 318 318 317 317 317 317 318 318 318 318 318 317 317 317 318 317 317 317 317 317 317 317 317 317 317 317 317 317 317 317 317 317 317 316 314 312 311 311 310 310 311 310 310 310 310 310 310 310 310 310 310 310 310 310
318 319 319 320 321 321 319 319 323 324 322 321 321 320 320 320 321 322 322 321 320 320 321 321 320 319 318 315 315 316 316 316 317 318 318 318 318 317 318 318 318 318 318 318 318 318 318 318 317 317 317 317 317 317 317 317 317 317 317 317 317 317 316 317 317 317 316 314 312 310 310 310 310 310 310 310 310 310 311 311 310 310 310 310 310 310
316 317 317 319 321 321 320 320 322 324 323 322 321 320 320 320 320 321 322 321 320 319 319 319 319 320 318 314 313 315 316 316 317 318 318 318 318 317 317 317 317 318 318 318 318 318 317 317 317 317 317 317 317 317 317 317 317 317 317 316 316 316 316 317 317 317 317 316 313 311 310 310 310 310 310 310 310 311 311 311 311 311 311 310 311 310
314 315 316 318 319 320 320 321 322 323 324 322 320 319 319 318 319 321 322 321 320 320 319 318 319 319 318 315 313 314 316 318 318 318 317 317 317 316 317 317 317 317 317 318 318 317 318 318 318 318 318 317 318 317 317 317 317 316 316 316 316 316 316 316 316 317 317 317 315 312 310 310 310 310 310 311 311 311 311 311 311 311 311 311 311 311
313 314 314 316 318 318 320 321 322 323 323 321 321 320 317 316 318 322 322 321 320 319 318 318 319 319 318 315 311 313 318 320 319 317 317 318 317 316 317 317 317 317 318 317 318 318 318 318 318 318 318 317 317 317 317 316 316 316 315 315 315 315 316 316 316 317 316 316 316 314 311 310 309 310 310 310 311 311 311 311 311 311 311 311 312 311
312 313 314 316 318 318 319 321 321 322 321 322 323 322 317 315 317 321 322 322 319 318 316 316 318 318 316 312 311 314 319 319 318 317 317 317 318 317 317 317 317 318 317 318 318 318 317 317 317 317 317 317 316 316 316 315 315 315 315 315 315 315 315 316 316 316 316 316 316 315 313 310 309 309 310 310 310 311 311 311 311 311 311 311 311 311
312 313 314 316 318 318 319 321 321 322 323 322 320 317 315 316 319 322 323 320 316 316 317 316 316 317 315 312 312 315 317 317 318 317 317 317 318 318 317 317 317 317 317 317 317 316 316 316 316 316 316 316 315 315 315 315 314 315 314 314 314 314 314 315 315 315 316 316 316 316 315 313 310 309 309 310 310 310 310 310 310 311 311 311 311 311
314 315 315 315 317 318 319 320 321 323 322 318 315 314 315 320 323 320 316 313 312 314 317 316 315 316 316 314 314 315 317 317 317 317 317 317 317 317 317 317 316 316 316 316 316 316 316 316 315 315 314 313 313 313 313 313 313 314 314 314 314 315 314 315 315 315 315 315 315 315 315 315 313 311 309 309 309 309 309 309 310 310 310 310 310 310
315 316 316 316 317 318 318 319 322 323 317 310 313 316 317 318 316 309 306 308 310 312 314 315 315 316 316 316 316 316 317 317 316 316 316 315 316 316 317 316 316 315 315 315 316 315 315 314 313 312 311 311 311 311 311 311 312 312 313 313 314 314 314 314 314 314 314 314 315 315 315 315 315 313 311 310 309 309 309 309 309 310 310 310 310 310
316 317 318 317 317 318 320 319 319 317 311 307 311 314 311 309 308 305 303 306 308 308 309 311 313 314 315 315 315 315 315 315 315 314 314 314 315 316 316 315 315 315 315 314 314 312 312 311 311 310 311 310 310 311 311 311 311 311 312 312 313 313 313 313 313 313 314 314 314 315 315 315 315 315 314 312 310 309 309 309 309 309 310 309 310 310
315 313 314 316 316 316 317 317 313 310 308 307 307 308 307 306 307 306 306 306 306 306 307 308 309 311 312 313 313 313 313 313 313 313 313 314 314 314 314 313 313 312 312 311 311 310 311 312 311 311 312 311 310 311 312 311 311 311 311 311 312 312 312 313 313 313 313 313 314 314 314 314 314 315 315 314 313 311 310 309 309 309 309 309 309 309
309 307 309 313 315 313 312 312 309 307 307 306 306 306 306 306 306 306 306 305 305 306 306 306 307 308 309 310 310 311 311 311 311 311 311 311 311 311 311 311 310 310 311 311 311 311 312 312 312 312 313 312 311 311 312 312 311 311 311 311 311 311 311 312 312 313 313 313 313 313 314 314 314 313 313 313 313 312 311 310 309 309 309 309 309 309
306 307 309 312 314 314 313 309 307 306 305 305 305 305 305 305 306 305 305 304 304 304 304 305 306 307 307 308 308 308 308 308 308 309 309 309 309 309 310 310 310 311 311 311 312 312 312 312 313 313 313 313 312 311 311 311 311 312 312 312 311 311 311 311 311 312 312 312 313 313 313 313 313 312 312 312 311 311 310 309 309 308 308 308 309 309
307 308 309 309 310 312 310 306 304 305 305 304 304 304 303 304 305 305 304 304 303 302 302 302 303 304 304 305 306 306 307 307 307 308 308 308 308 308 309 309 310 310 311 311 311 312 312 312 312 312 313 313 312 312 312 311 311 311 312 312 312 312 312 312 311 310 310 311 311 312 313 313 313 313 312 312 312 311 310 309 308 308 307 307 308 308
306 308 309 309 309 309 307 305 304 306 306 303 302 303 302 303 304 304 304 304 304 303 302 300 300 300 300 301 302 303 305 305 305 305 305 305 305 305 306 307 308 309 309 310 310 311 311 311 311 312 312 312 312 312 312 311 311 311 311 311 312 312 312 313 312 311 311 310 310 310 311 312 312 312 313 313 313 313 312 311 310 309 308 308 307 307
306 308 308 308 310 308 306 304 304 306 306 304 301 300 301 302 302 302 302 303 302 302 302 300 300 299 299 299 299 300 301 302 302 301 301 301 300 300 301 302 305 306 307 308 309 309 310 310 310 310 311 311 311 311 311 311 310 310 310 310 311 311 311 312 312 312 312 311 310 310 309 310 310 311 311 312 312 312 312 312 311 311 310 309 309 308
306 308 307 307 308 307 304 303 302 303 304 302 299 299 301 301 300 299 299 299 300 301 301 300 299 298 298 298 298 298 299 299 299 299 299 299 299 299 299 300 302 304 305 305 306 307 308 309 309 309 310 310 310 310 310 310 309 309 309 309 309 310 310 310 310 311 311 311 311 310 309 309 309 309 309 310 310 310 310 310 310 310 310 309 309 309
Wind_Speed
14 6 6 10 12 13 12 10 5 1 7 10 8 6 6 5 4 4 3 3 5 5 5 9 12 15 11 9 14 20 17 14 18 21 24 26 26 27 27 29 31 32 32 29 29 31 30 29 27 26 26 26 27 28 28 28 28 28 29 30 31 32 32 32 32 32 32 33 33 33 32 32 31 30 29 28 27 25 24 22 21 21 20 20 21 20
12 9 13 16 12 11 11 10 5 3 8 10 8 6 6 6 4 4 3 3 3 4 4 5 8 16 13 10 14 13 11 16 22 23 26 29 30 33 34 36 37 34 31 26 26 28 28 30 31 30 30 29 29 29 29 30 30 29 29 31 32 31 32 33 33 34 34 34 34 33 32 31 30 29 29 28 26 25 25 24 23 22 22 22 22 21
8 12 16 16 9 7 10 11 8 5 9 8 6 6 6 5 1 2 2 2 2 4 3 2 4 14 12 8 12 13 15 24 29 28 30 32 32 35 37 38 38 36 34 31 29 28 26 27 29 32 33 32 31 30 30 30 30 30 31 32 32 32 33 34 34 35 35 35 34 33 32 31 30 29 28 27 27 27 28 28 27 26 25 25 24 22
8 11 13 14 10 9 10 11 10 6 6 6 6 7 4 5 4 2 2 1 1 2 1 1 4 11 11 6 9 17 25 31 32 31 32 34 34 37 37 36 36 35 35 35 35 33 30 28 28 31 34 34 33 33 33 32 31 32 33 33 33 33 33 33 34 35 35 35 33 33 32 31 31 31 30 30 30 31 31 30 29 29 28 27 26 24
9 6 14 15 10 12 11 11 12 7 5 4 6 7 4 5 5 2 1 1 1 2 1 0 5 8 9 8 8 13 21 26 29 27 28 34 38 39 38 37 37 37 36 35 36 35 32 30 30 31 32 33 35 37 37 35 32 32 33 33 33 32 33 33 34 34 34 35 34 34 34 34 35 36 35 35 34 34 33 31 29 28 27 27 26 25
10 9 19 18 11 13 11 10 12 9 5 4 5 6 8 8 5 5 4 3 3 2 1 1 4 5 4 6 8 6 6 15 19 18 25 34 38 37 37 39 41 39 37 36 36 35 32 31 32 32 31 33 36 38 39 36 33 33 33 33 33 33 33 33 34 34 34 35 35 35 36 37 38 38 37 36 35 33 31 29 27 26 26 26 26 26
6 10 14 14 14 14 11 9 10 10 6 4 5 6 8 9 8 7 5 3 1 3 1 2 3 5 5 6 7 3 3 11 10 8 20 31 33 33 35 40 42 40 39 38 37 36 33 32 33 34 34 34 36 37 38 38 36 34 33 33 34 35 35 34 34 34 34 35 35 35 36 37 37 38 36 34 33 31 28 27 26 27 27 27 27 27
6 11 10 13 17 13 12 11 10 12 8 4 5 9 9 9 9 8 6 4 3 2 1 2 2 4 8 7 4 2 4 11 11 9 15 22 28 31 33 37 39 41 41 39 39 38 35 34 34 36 36 36 35 34 35 38 38 37 35 34 34 35 36 36 35 35 35 35 35 35 36 36 37 36 35 34 33 31 28 28 28 28 28 27 27 27
6 13 12 14 15 11 12 9 10 13 6 3 5 9 9 8 7 6 5 3 1 2 3 2 3 3 8 5 1 1 4 10 15 14 11 16 26 31 32 34 35 36 37 37 39 39 37 36 35 35 36 35 34 32 32 36 38 37 36 35 34 35 36 37 37 37 36 35 35 36 36 37 36 35 34 34 33 31 30 29 29 29 28 28 27 27
2 8 13 15 12 9 8 8 14 13 4 4 6 9 7 5 5 4 3 4 3 2 6 4 5 4 8 6 3 2 3 11 14 9 8 15 24 28 29 30 30 29 31 32 35 38 38 37 35 35 35 35 34 33 32 32 34 36 36 35 36 36 36 36 37 37 37 36 36 37 38 37 36 35 34 34 34 32 30 30 29 29 28 27 26 26
2 2 8 10 8 8 10 10 14 12 10 10 8 9 7 5 4 3 2 4 1 5 5 8 10 6 7 5 5 5 5 8 9 6 7 13 21 24 23 21 19 20 23 26 30 33 36 36 35 35 36 36 35 34 33 33 34 34 35 35 36 36 35 35 36 36 37 37 37 38 37 36 35 34 34 35 34 33 31 30 29 28 27 26 25 25
4 2 2 6 9 14 14 8 6 11 16 11 5 6 4 3 3 3 3 2 3 5 2 7 11 9 8 5 4 5 4 3 6 6 6 9 14 18 15 10 8 10 15 21 26 29 32 33 32 32 34 36 37 36 35 36 36 37 36 36 35 35 34 34 35 35 36 36 37 36 35 34 33 33 34 34 33 33 31 30 29 28 27 26 25 25
6 5 3 4 10 18 16 8 2 5 12 8 5 8 5 1 1 2 2 2 5 4 2 3 7 6 10 9 6 9 8 7 9 10 11 11 13 14 11 9 9 10 13 17 23 27 29 31 30 28 30 33 36 38 38 38 38 39 39 39 38 37 35 34 34 35 35 36 35 34 33 32 32 33 33 32 32 31 30 30 29 28 27 26 26 25
5 6 6 4 5 14 16 11 6 4 8 9 10 10 7 5 4 7 6 3 4 3 2 3 3 2 5 6 10 14 15 16 16 17 18 17 18 20 18 18 20 21 19 17 21 24 24 24 23 23 24 26 29 32 35 37 39 40 41 41 41 40 37 34 34 35 35 35 34 32 32 32 32 32 32 31 31 30 29 29 29 28 27 26 26 25
8 5 8 9 4 12 17 15 15 11 9 9 8 7 7 6 5 6 5 4 3 1 2 2 2 3 4 2 7 10 12 17 19 19 18 19 21 22 21 23 24 24 23 21 21 21 20 18 17 20 22 23 24 26 28 32 37 40 43 43 43 41 40 38 36 35 35 34 32 31 30 30 30 31 31 30 29 29 29 29 29 28 27 26 25 25
10 5 7 11 4 11 17 15 16 14 8 6 5 6 7 6 5 3 3 4 3 1 1 3 3 3 3 7 9 8 10 14 17 19 17 19 21 19 20 23 24 24 24 23 24 23 21 19 19 21 23 25 26 27 28 31 34 38 41 43 43 42 41 40 37 35 34 33 31 30 30 29 29 29 29 29 28 29 29 29 28 27 26 26 25 25
9 5 7 11 4 9 14 13 16 15 9 5 5 7 5 4 6 4 2 1 3 2 3 4 6 4 3 11 13 12 13 12 13 14 14 18 18 15 21 26 26 26 23 21 23 24 24 23 22 22 23 25 27 28 29 30 31 34 36 38 41 41 41 39 37 35 34 33 32 31 30 29 29 29 28 27 27 28 28 27 26 26 26 26 26 26
7 2 6 12 9 9 9 12 15 9 5 7 8 8 5 3 3 4 1 2 3 4 4 4 9 4 1 7 5 5 13 14 11 7 7 13 15 17 24 27 23 20 16 15 17 20 22 22 21 22 23 24 25 26 27 26 27 29 32 34 36 38 39 37 36 35 34 33 32 31 30 30 30 29 28 28 27 28 27 26 25 25 26 26 26 26
4 3 2 6 7 6 4 9 10 2 2 4 8 9 7 3 3 3 3 2 2 5 4 2 4 3 8 9 3 1 9 10 8 6 5 9 12 15 18 18 14 12 12 10 10 14 18 19 20 20 21 22 22 23 23 23 24 26 29 31 32 35 35 34 33 33 33 34 33 32 31 31 31 30 30 29 29 30 29 27 25 25 25 25 26 26
4 4 2 2 2 6 5 5 8 4 2 3 6 7 4 3 5 5 4 3 3 5 5 3 2 4 8 9 6 8 9 8 7 5 5 9 12 14 15 15 13 13 10 6 5 8 10 13 14 14 15 17 17 19 20 21 23 24 26 28 30 32 32 33 32 32 33 34 33 33 32 32 32 32 32 32 31 32 30 27 26 25 25 26 26 27
3 2 3 1 0 5 7 6 11 13 7 4 8 9 5 3 3 2 3 3 3 4 5 4 5 6 5 6 10 12 11 11 9 6 6 13 20 22 19 17 14 11 10 6 3 6 10 12 11 11 11 11 12 14 16 18 20 22 23 25 27 29 31 32 32 32 32 32 33 33 33 33 33 33 34 33 33 33 31 29 28 26 26 27 27 27
4 2 5 4 3 7 9 6 9 12 10 7 8 9 9 7 4 3 5 3 2 3 3 3 7 8 3 5 9 11 9 9 8 5 7 16 23 22 19 17 16 13 13 11 8 9 14 15 14 13 12 11 11 12 12 13 15 17 19 21 23 26 28 30 30 30 31 31 32 33 33 34 34 34 34 34 34 33 32 31 29 29 29 29 29 28
3 4 6 4 3 5 4 1 1 6 7 4 3 6 7 5 5 7 9 5 3 3 2 2 7 7 3 5 7 7 7 8 9 8 10 18 23 20 18 16 17 17 18 19 17 14 16 18 18 18 16 14 12 12 12 12 12 13 15 17 19 22 24 25 26 27 28 29 31 32 33 33 33 33 33 34 34 34 34 33 31 31 32 31 30 29
2 4 5 3 1 2 2 2 4 5 6 3 2 5 7 9 10 8 5 4 4 5 5 4 9 7 4 4 5 7 7 9 12 12 13 18 21 18 16 14 14 16 19 20 18 15 16 19 19 19 18 15 13 12 12 13 13 13 13 13 15 16 17 19 20 22 24 26 28 29 30 31 31 31 32 33 35 35 35 34 34 33 33 32 31 30
5 6 6 5 3 2 3 3 3 1 4 6 8 9 11 15 13 5 2 2 4 9 10 7 12 8 1 2 3 5 5 7 12 13 13 16 16 14 13 11 11 13 13 14 15 15 16 17 18 18 16 14 11 10 9 9 11 12 12 13 13 13 15 16 18 20 22 23 25 26 26 27 27 28 29 31 32 33 33 34 33 33 32 31 31 30
5 5 7 8 8 8 8 9 9 9 8 7 10 14 16 19 18 10 5 5 8 11 10 11 13 5 4 5 4 4 5 5 8 9 9 11 11 12 11 8 8 9 9 11 13 15 16 15 15 14 13 11 9 7 6 6 7 9 10 11 12 13 15 17 18 20 22 23 24 25 25 25 26 26 27 27 28 28 29 30 30 31 30 30 30 29
2 4 11 10 10 11 7 5 7 10 9 8 11 16 18 18 19 14 7 8 14 11 9 15 13 1 2 4 5 5 5 6 6 6 8 9 8 8 8 7 7 9 10 12 14 15 15 13 12 11 10 9 8 7 6 6 5 6 7 8 10 12 14 16 18 20 21 23 24 25 26 26 27 27 26 26 26 27 28 28 28 28 28 28 28 28
2 5 13 14 16 9 2 2 8 13 15 17 18 19 19 17 17 14 11 15 16 7 10 18 10 4 5 6 6 7 6 4 6 7 10 10 7 5 5 6 7 8 9 10 13 14 13 12 11 9 8 7 7 7 6 6 6 6 7 8 10 13 15 17 19 20 21 22 23 24 26 27 28 28 28 27 28 28 29 29 28 27 27 28 28 27
3 7 13 15 18 9 3 1 11 15 15 17 18 19 19 18 19 19 21 24 17 10 18 19 10 10 12 7 7 9 7 6 8 11 12 10 8 7 6 7 8 7 8 9 10 12 12 11 10 8 7 7 6 6 5 5 5 4 6 10 13 15 17 19 20 21 22 22 22 23 24 26 27 27 27 28 28 29 29 29 29 29 29 29 28 27
4 8 10 11 15 12 4 2 8 14 14 13 14 16 16 18 21 22 25 27 18 15 24 17 9 14 16 10 10 11 11 13 13 12 12 9 9 9 8 9 10 10 11 10 9 10 10 10 9 8 8 7 6 6 7 6 6 7 12 17 20 20 20 21 21 22 22 22 23 23 24 25 26 26 27 28 28 29 29 29 29 29 29 28 27 27
5 7 8 8 9 11 9 5 5 12 14 13 14 14 14 16 18 20 22 21 15 19 29 20 11 16 12 9 10 12 12 12 11 11 11 9 9 10 10 12 13 14 14 12 9 9 9 9 9 9 9 8 7 8 9 9 11 16 21 24 26 25 24 23 23 22 21 21 22 24 24 25 26 27 27 28 28 27 26 26 27 28 28 27 26 26
7 5 4 5 5 8 11 10 6 7 10 12 12 13 16 17 18 20 23 22 19 23 28 21 16 17 8 7 9 13 12 12 14 16 16 14 13 13 13 15 16 16 15 11 8 8 8 9 10 10 11 10 11 12 12 16 20 23 26 27 27 26 26 26 25 24 23 21 21 23 24 25 26 26 26 26 25 24 22 23 24 25 25 25 25 26
8 7 4 5 6 8 12 12 7 5 6 8 11 17 22 23 24 23 24 25 23 22 20 16 14 11 5 9 12 15 13 14 22 24 22 21 21 18 17 18 17 18 16 13 12 11 11 12 11 12 13 13 14 16 19 25 28 30 29 27 25 24 25 25 26 26 24 22 21 22 23 25 25 25 25 24 22 21 21 22 23 23 24 24 25 26
8 9 5 6 7 8 7 8 6 6 9 10 13 21 26 27 27 25 24 23 19 16 14 14 10 5 9 12 15 13 13 21 30 28 21 23 28 28 28 27 23 22 21 18 18 18 18 19 18 18 18 19 21 24 28 33 35 34 32 28 27 26 25 24 25 25 25 23 21 21 22 24 25 25 24 22 21 21 21 22 22 23 24 25 25 26
6 8 5 5 6 4 6 8 6 9 12 11 11 15 19 20 20 19 20 18 16 16 20 24 19 9 7 8 13 14 19 28 34 31 25 27 32 34 36 38 36 32 29 27 27 27 26 27 27 26 26 27 29 33 37 40 38 35 32 31 31 29 27 25 24 24 24 23 21 21 22 24 25 25 24 22 22 22 23 23 24 24 25 25 26 26
5 5 4 3 4 2 5 7 7 5 5 5 5 8 9 10 11 12 18 22 23 23 25 27 22 10 4 6 11 15 19 23 26 33 38 41 40 38 37 38 38 36 35 36 38 38 38 39 39 39 38 38 40 42 42 40 36 35 34 32 31 30 28 27 25 23 23 24 23 22 22 24 26 27 25 25 25 25 25 25 25 24 25 25 26 27
4 3 2 3 5 3 5 8 6 4 4 2 6 10 13 16 17 15 15 20 19 17 17 18 18 15 12 11 12 12 13 13 11 24 45 52 45 40 38 35 33 34 37 41 42 43 45 46 44 43 42 41 41 41 39 36 35 35 34 31 30 28 27 27 25 23 22 23 24 24 23 26 28 29 28 27 27 27 26 26 25 25 25 25 26 27
4 4 3 3 3 2 4 6 6 6 8 10 12 15 18 17 13 8 6 14 9 12 19 22 21 21 14 9 12 14 11 6 5 20 44 48 35 32 36 35 35 37 40 43 44 45 45 44 41 41 40 40 40 38 35 33 33 33 31 28 27 27 26 25 23 22 23 23 23 25 26 27 30 31 31 30 30 29 28 27 26 26 25 25 26 27
3 2 3 2 2 2 3 5 6 7 12 13 11 10 12 15 14 12 4 15 12 15 25 25 22 21 14 12 16 15 9 5 11 20 32 33 27 30 34 33 36 39 40 41 41 40 40 38 37 38 38 38 36 32 29 30 31 31 29 26 24 25 25 24 22 22 22 21 23 25 27 29 32 34 34 33 32 31 30 29 28 28 27 27 27 28
3 2 2 4 4 4 5 5 4 5 8 7 5 8 18 25 21 11 8 17 14 15 23 24 21 20 17 21 21 13 9 14 19 17 18 26 32 34 31 30 32 31 31 32 31 31 31 30 30 30 30 30 29 27 27 29 30 30 29 26 25 25 24 22 22 22 21 21 23 25 27 29 34 37 37 36 35 34 34 33 32 31 30 29 29 30
2 3 3 5 7 8 9 7 4 5 6 4 4 13 26 28 15 9 13 12 5 11 24 28 24 19 22 28 24 16 22 35 36 25 18 24 32 33 29 26 25 22 21 22 21 21 21 21 22 24 25 26 27 26 27 29 30 31 29 27 28 27 23 21 21 21 21 22 24 26 26 27 31 37 40 39 39 39 38 37 35 34 33 32 32 32
3 3 2 4 5 6 7 6 4 5 3 1 5 16 24 18 7 8 6 10 13 3 17 26 25 22 26 33 33 30 37 47 47 37 27 22 24 26 26 23 19 16 15 16 16 18 20 22 23 23 23 23 23 24 26 27 30 30 29 29 30 27 23 22 22 21 21 22 24 25 26 26 27 33 39 42 43 43 42 40 39 37 37 36 35 34
5 5 3 4 3 1 5 6 5 5 4 7 2 9 10 4 4 7 10 13 17 13 3 11 18 23 28 34 40 44 45 42 37 31 26 20 20 24 27 24 21 19 19 20 22 23 22 20 16 13 11 12 14 17 19 22 24 25 27 29 29 26 24 24 24 23 23 23 23 24 25 26 27 29 35 40 44 45 45 44 42 41 41 39 38 36
4 4 2 4 4 3 5 4 2 3 4 10 8 2 2 3 7 10 9 10 19 23 17 8 3 15 23 26 29 35 35 29 21 15 14 14 18 23 25 25 24 23 22 22 20 16 12 9 4 3 5 6 6 7 9 11 14 16 19 21 21 21 23 24 24 24 24 23 23 24 25 27 29 30 32 36 40 44 46 46 45 44 44 43 41 40
1 2 3 3 2 2 3 2 0 1 3 9 12 11 10 12 16 18 17 19 24 25 23 21 16 5 6 10 10 11 13 13 12 11 10 11 13 16 16 16 14 12 10 9 7 6 6 4 3 3 4 7 8 9 10 10 10 10 11 11 12 15 20 22 24 25 25 24 24 25 26 28 30 31 32 34 37 41 44 46 46 46 46 46 44 43
1 0 2 2 1 2 3 3 4 5 8 12 16 20 23 25 25 26 27 28 28 27 26 26 24 20 15 10 9 8 7 6 4 2 1 1 1 2 3 2 1 1 2 2 3 5 6 6 6 6 5 5 6 8 9 10 10 10 10 10 9 10 13 17 21 24 24 25 25 25 26 28 29 30 32 33 36 39 41 44 46 46 46 46 45 45
2 1 2 2 1 3 3 5 5 7 11 15 17 22 28 30 29 30 30 30 30 31 30 28 27 27 25 22 20 18 17 15 13 12 12 10 9 7 6 4 3 1 1 2 4 6 6 7 8 8 9 8 8 9 9 8 9 9 9 10 11 11 11 12 15 17 20 22 24 26 27 28 28 29 30 31 32 35 37 40 42 44 45 46 46 46
2 1 2 1 1 3 3 3 4 8 15 22 23 23 27 29 28 28 28 27 28 30 30 29 29 29 29 27 24 22 20 18 16 15 15 14 13 11 8 6 5 4 2 2 4 5 7 8 8 9 10 10 11 12 12 11 10 10 10 11 12 12 13 13 13 14 15 17 20 23 26 27 29 29 29 29 29 30 31 33 35 38 41 43 43 44
1 1 1 2 2 3 2 4 4 6 12 21 24 24 24 24 24 25 25 25 26 27 29 30 29 29 29 28 26 24 22 20 19 19 19 19 18 16 14 12 10 8 6 5 5 5 7 8 8 9 10 9 11 13 13 13 13 13 12 13 13 14 14 15 15 15 15 15 16 19 21 24 26 28 29 30 30 30 30 29 30 31 33 35 36 38
1 0 0 2 3 3 2 4 4 3 4 8 17 22 20 18 22 25 26 26 26 26 28 30 29 29 29 28 27 26 23 21 21 21 21 21 21 21 20 17 15 13 12 10 9 8 8 9 9 9 9 8 10 12 13 13 14 15 15 16 16 16 17 17 17 17 17 17 17 17 18 20 23 24 26 28 29 30 30 30 30 31 32 32 34 35
2 3 2 2 3 4 4 4 6 6 2 3 12 16 13 14 21 26 25 26 26 25 26 28 29 30 29 28 27 26 24 23 24 24 24 23 23 22 21 19 17 16 15 15 13 11 10 9 10 10 10 9 10 11 12 14 15 16 17 17 18 19 20 20 20 20 20 20 20 19 19 19 21 22 24 25 26 27 28 29 31 31 32 33 34 35
Wind_Direction
180 177 206 209 204 203 205 204 207 169 147 145 149 163 178 193 227 227 240 254 170 159 235 225 241 254 241 236 246 247 251 250 244 247 248 248 250 251 252 255 255 255 255 255 249 246 247 247 248 248 246 244 241 238 236 235 235 233 232 231 230 229 229 229 230 231 232 233 235 236 237 238 239 241 243 246 248 250 252 252 252 252 252 253 253 253
182 194 213 215 210 194 196 201 184 140 149 146 153 169 188 202 227 222 211 258 181 166 252 243 253 262 252 244 251 248 251 252 242 241 247 249 252 253 254 255 256 255 254 252 247 243 246 248 247 247 245 244 242 239 236 236 235 234 234 233 232 231 230 230 230 231 232 234 235 238 240 243 244 246 248 251 253 256 256 255 253 252 252 253 253 254
190 215 213 203 200 185 184 192 185 158 156 159 161 165 193 200 218 281 282 306 161 171 264 343 282 267 261 242 246 239 236 250 248 242 246 248 249 252 253 255 257 257 252 247 245 244 249 251 248 246 244 243 242 241 240 238 237 236 235 235 234 232 232 231 231 232 234 235 236 239 242 245 248 249 251 253 253 254 253 251 251 250 250 251 252 254
208 222 200 179 178 178 179 185 179 163 165 171 161 162 195 186 169 253 278 287 145 167 219 12 305 279 273 247 239 235 234 248 253 248 249 249 247 250 253 256 258 257 252 248 246 249 253 252 247 245 243 242 241 240 240 238 237 236 235 235 235 234 234 234 234 234 236 237 238 240 243 245 247 249 250 250 249 249 249 248 247 247 248 250 252 253
230 204 166 170 178 177 180 185 180 177 184 187 177 167 164 177 175 156 161 177 2 8 93 306 299 283 265 250 248 237 232 245 251 246 248 248 248 250 252 253 255 255 254 250 248 249 250 248 245 245 243 242 240 238 238 238 237 237 237 237 237 237 237 237 237 237 238 239 239 239 241 242 244 245 246 246 245 245 247 248 249 251 253 254 255 255
237 194 168 173 181 178 181 189 190 187 182 201 215 182 156 159 145 113 127 95 39 319 265 162 264 273 269 252 255 254 235 247 246 237 241 244 245 246 245 248 250 252 252 251 249 248 245 245 244 245 243 242 241 239 237 236 237 239 240 240 240 240 240 239 240 239 239 240 240 240 240 242 243 244 246 247 248 249 251 255 258 259 259 258 258 257
221 200 182 175 173 176 185 192 191 181 174 210 208 161 144 144 131 133 155 133 131 252 246 146 223 269 288 262 248 236 238 255 248 228 240 244 244 243 241 245 247 248 249 248 249 248 244 241 241 242 242 241 242 240 238 236 235 237 239 240 240 240 241 241 241 240 240 240 241 242 243 244 246 248 251 253 255 257 259 261 262 261 260 259 259 258
170 185 187 177 172 176 191 193 186 175 175 222 176 139 134 137 146 158 158 173 221 279 307 137 149 274 278 265 247 185 224 265 263 243 243 243 244 244 242 246 247 247 248 246 247 247 244 240 238 240 241 241 243 243 239 235 233 235 237 238 239 240 241 241 242 242 241 242 242 244 246 247 248 251 255 257 258 260 260 260 259 259 259 258 257 257
167 185 183 177 176 185 193 177 164 167 169 234 168 134 135 138 148 153 139 154 37 5 258 206 131 250 272 258 243 115 217 255 257 247 246 243 244 246 245 246 249 249 249 248 247 247 246 242 238 239 241 241 242 243 240 236 234 234 236 238 240 240 240 240 241 243 243 244 245 246 247 248 250 253 256 258 259 260 259 258 258 257 257 256 256 256
145 203 191 178 181 189 177 147 159 166 157 183 143 98 95 92 93 104 117 116 67 285 232 193 163 227 273 250 181 100 222 245 255 252 246 245 247 249 249 249 250 250 250 248 247 247 247 246 242 242 243 242 240 240 240 238 235 235 235 236 239 240 241 240 240 242 243 244 245 246 247 249 251 254 255 257 258 259 258 257 257 257 256 255 255 254
12 290 201 190 190 167 137 140 163 158 139 147 122 86 75 49 55 58 56 90 84 262 219 176 175 196 274 261 172 179 216 228 245 252 242 244 246 248 249 252 253 254 253 249 247 246 245 245 245 244 245 244 242 240 239 239 237 236 235 235 237 239 241 242 241 241 243 243 244 246 248 250 253 254 255 257 257 257 258 257 257 257 257 256 255 253
291 318 229 216 182 146 128 133 151 139 144 147 115 113 101 29 29 30 25 78 219 254 229 174 173 181 236 249 162 208 240 206 220 239 247 252 252 248 242 241 250 262 260 251 247 246 243 242 242 242 243 242 241 240 237 237 237 237 238 238 238 239 239 241 241 241 242 243 245 247 249 251 252 253 254 255 256 257 257 257 257 258 258 256 254 253
240 232 246 237 175 154 141 131 74 130 157 157 129 139 143 141 187 196 197 213 229 257 335 166 159 186 236 252 252 254 264 245 222 224 237 250 259 263 251 238 257 276 272 256 246 244 242 239 237 239 241 239 238 238 236 236 236 237 239 240 241 240 240 241 242 242 242 243 245 247 250 251 252 253 254 255 256 256 256 256 256 255 255 255 254 254
203 223 223 224 180 172 161 145 151 179 179 174 158 164 173 161 185 208 203 234 246 261 337 139 143 255 256 268 254 247 252 251 244 240 244 252 261 271 273 271 276 276 269 257 245 241 235 230 231 237 242 240 238 238 237 236 236 236 236 237 239 240 240 242 243 243 242 243 246 249 251 252 253 254 255 256 256 257 257 255 255 255 255 256 256 256
182 215 202 190 191 187 180 170 170 166 176 188 163 160 178 170 189 205 196 221 227 281 321 171 178 206 185 239 243 239 258 262 260 258 255 257 261 267 271 270 271 268 263 253 238 228 219 220 235 245 244 242 240 239 240 238 236 236 235 234 235 236 237 239 241 242 242 243 246 249 251 252 252 254 255 256 257 257 257 256 256 256 256 257 258 260
193 247 195 180 199 192 185 179 165 151 162 197 150 155 190 180 157 152 187 195 159 125 254 199 235 219 204 274 267 254 273 273 267 264 259 256 256 257 260 258 258 262 266 255 234 221 222 235 251 253 248 246 241 239 242 242 238 236 234 234 233 233 234 236 238 241 241 242 244 247 249 251 252 253 254 254 254 254 255 256 257 257 258 259 260 262
190 234 182 172 193 203 190 173 164 162 164 170 163 175 183 141 122 123 232 42 86 230 223 181 238 277 317 283 267 242 247 259 260 256 252 254 256 259 261 261 265 270 270 254 233 225 233 246 251 252 253 247 239 239 244 247 244 238 234 234 233 231 232 233 235 237 238 239 242 245 248 251 253 254 254 254 254 254 256 257 258 258 258 258 259 261
173 155 179 179 182 199 194 171 172 180 158 152 176 174 133 81 90 103 224 8 53 251 254 197 226 243 210 262 278 221 228 241 253 264 265 260 258 258 261 265 271 276 270 249 235 233 241 247 248 249 249 241 237 241 245 245 242 236 234 235 233 231 231 231 233 235 237 239 242 246 248 251 254 255 255 255 254 256 257 257 258 257 257 258 259 262
153 105 197 201 178 164 165 170 173 259 327 155 164 160 138 153 193 151 188 215 202 240 273 267 244 225 203 224 277 212 216 226 249 280 280 255 247 252 267 274 270 267 265 252 245 249 247 243 240 240 238 235 238 242 240 237 234 230 231 232 232 231 230 231 233 235 236 239 242 245 248 251 253 254 254 254 254 255 255 256 256 256 257 258 259 261
159 130 159 233 168 144 158 184 175 181 320 56 124 152 151 166 185 181 181 175 188 231 267 308 307 241 214 213 226 236 239 239 246 254 245 249 258 267 284 287 268 254 252 244 245 246 231 219 218 220 225 230 232 233 230 229 229 230 231 230 229 228 227 228 231 233 235 237 240 243 246 249 251 252 253 253 254 255 255 255 255 256 257 257 259 261
164 132 138 152 64 161 177 195 188 183 173 143 156 170 185 176 141 170 199 161 152 213 244 267 266 253 225 201 209 220 239 250 246 235 247 270 276 278 281 277 268 251 220 206 237 227 208 205 206 206 212 218 221 225 226 226 228 230 231 230 228 227 227 228 231 233 235 237 240 243 246 248 250 251 252 253 254 255 255 255 255 256 257 257 259 260
178 149 145 151 180 189 190 195 200 190 173 170 178 174 182 180 129 156 215 198 148 203 200 219 260 266 240 205 210 211 223 239 238 228 254 270 274 281 284 272 267 258 227 229 269 249 218 216 219 216 217 219 222 225 226 228 230 232 233 232 229 228 229 231 233 236 238 240 243 245 247 249 249 250 251 252 253 254 254 254 254 256 257 259 260 261
128 111 135 140 181 195 192 193 150 158 151 148 195 179 171 162 144 181 214 203 176 214 154 161 267 270 215 194 198 202 223 243 246 237 250 267 274 287 296 283 270 261 245 249 266 253 223 219 221 224 226 228 232 233 234 236 234 233 236 235 233 233 232 234 236 238 240 242 244 246 247 248 249 250 251 252 253 253 254 254 254 255 257 259 260 260
74 122 137 119 85 67 77 49 42 84 125 126 220 185 164 182 191 195 204 169 174 215 191 216 262 253 197 196 193 190 218 247 254 248 251 270 283 293 298 293 278 263 255 256 258 243 225 220 219 222 226 228 233 236 238 237 232 229 230 232 234 234 233 234 237 239 241 244 246 248 249 250 252 253 253 254 254 254 254 253 253 254 255 256 257 257
184 165 154 142 140 94 100 111 55 62 174 187 203 193 185 194 192 173 125 139 219 219 191 212 250 240 203 312 245 191 193 235 253 251 249 265 285 298 301 296 280 265 258 253 244 232 226 223 218 218 221 223 229 233 232 229 224 221 222 225 228 230 232 236 240 243 246 248 250 251 251 252 253 254 254 254 254 254 253 251 251 251 251 252 253 253
171 164 170 164 163 168 175 181 184 188 188 194 196 191 196 196 186 185 195 194 223 216 186 209 241 262 9 324 276 209 183 218 246 244 234 246 276 301 307 299 272 253 240 229 226 225 224 220 215 213 213 216 218 216 211 206 207 213 220 227 232 236 241 245 249 251 253 253 254 253 253 253 252 253 253 254 253 253 251 249 248 247 247 248 249 250
112 184 188 193 193 183 186 196 169 154 160 185 191 190 200 201 194 198 202 209 223 218 205 222 227 202 14 255 241 213 197 223 245 240 235 245 272 296 300 295 273 252 235 218 214 216 215 210 209 209 209 209 207 206 205 204 210 225 236 245 252 255 256 257 259 260 260 259 258 257 255 254 254 254 254 254 253 251 249 247 245 245 244 245 246 248
106 204 191 207 216 201 41 63 133 143 172 190 190 191 197 196 196 201 210 224 224 213 240 239 214 165 230 232 226 216 200 222 250 246 246 248 252 259 270 276 268 256 243 220 207 206 203 202 206 207 206 207 209 214 217 224 234 244 258 271 275 274 272 271 270 270 269 267 264 261 258 256 255 256 256 255 253 251 248 245 243 242 242 242 245 248
180 208 192 206 215 213 5 90 154 163 189 196 189 191 192 189 194 201 215 226 215 201 239 236 188 195 226 225 233 226 195 202 232 242 241 234 227 228 234 245 246 242 234 218 205 203 202 205 206 203 210 215 216 220 226 231 238 255 293 306 305 295 286 283 282 280 278 275 271 267 263 259 257 256 256 255 254 252 249 245 241 239 240 242 244 247
176 203 194 200 213 218 239 226 167 171 187 195 190 191 188 190 200 206 218 226 216 220 242 234 188 218 224 201 217 222 200 207 229 243 238 222 218 219 217 225 227 220 218 217 215 215 215 216 213 208 214 217 219 226 225 224 243 278 301 312 314 305 293 285 283 283 282 280 276 271 266 261 258 257 256 256 254 252 248 243 239 237 238 240 243 243
178 206 187 173 208 224 224 235 199 178 184 191 188 185 180 189 207 217 227 231 217 230 244 237 223 240 228 183 211 222 211 220 237 240 230 221 219 220 223 228 225 215 215 218 222 224 223 220 215 212 214 219 224 223 227 248 274 289 299 308 310 306 298 288 280 277 278 279 277 273 267 262 259 257 256 255 253 250 244 239 235 233 235 238 239 239
186 200 160 153 201 222 216 219 209 182 191 195 184 173 173 187 205 214 223 223 209 222 237 234 235 246 225 148 204 224 218 229 239 228 216 213 215 217 224 230 229 226 223 224 229 229 227 224 219 217 216 219 221 225 247 273 284 292 300 305 305 300 296 290 281 275 274 275 275 272 267 263 260 257 254 251 248 244 238 232 230 231 233 234 235 235
193 190 161 168 202 223 216 206 183 165 196 206 191 181 183 195 206 211 221 223 214 218 228 227 236 242 178 154 202 217 204 215 234 231 217 212 213 216 223 227 232 238 240 244 247 246 245 242 237 234 231 233 239 249 266 277 285 295 303 304 299 294 292 289 282 276 274 274 273 270 266 263 259 255 250 245 240 236 231 230 229 229 231 231 231 233
199 202 186 171 205 226 198 158 146 182 206 213 204 192 192 199 204 211 223 225 219 224 237 243 239 172 148 184 208 212 202 213 230 237 232 227 227 232 237 239 241 244 245 249 255 258 263 262 259 256 253 253 258 265 273 280 289 299 302 300 298 296 293 288 282 277 273 272 272 268 263 260 256 251 245 237 232 229 227 226 227 227 228 230 231 233
183 200 195 179 210 213 136 133 173 213 219 224 212 197 200 207 208 219 236 235 223 221 233 242 234 179 151 209 210 207 211 217 229 241 245 242 239 238 242 245 248 249 248 250 254 258 263 267 268 268 265 265 270 275 279 285 293 298 298 297 296 293 289 286 282 278 273 272 270 265 259 254 249 243 237 229 225 223 222 223 225 227 230 233 235 238
165 187 197 191 198 160 136 173 201 229 239 217 176 169 188 207 207 217 239 239 224 216 224 236 234 213 185 216 205 206 214 220 233 244 246 247 246 242 241 244 246 250 252 254 257 260 262 265 268 270 271 273 276 279 283 288 293 295 293 293 292 290 287 285 282 279 275 273 271 266 257 248 242 236 230 224 222 222 223 225 228 231 235 238 240 243
148 168 200 206 202 185 173 190 211 288 296 171 155 169 183 199 202 202 229 241 227 216 230 244 243 230 214 199 188 188 203 216 238 248 247 249 249 246 246 247 247 250 254 256 259 261 263 265 268 271 273 274 275 278 282 287 290 290 290 290 290 290 289 286 283 279 275 274 274 270 259 245 237 232 227 224 224 225 227 229 232 236 239 242 246 249
153 167 173 191 221 208 178 192 208 235 238 221 205 197 194 198 192 167 234 256 227 192 214 231 236 230 217 182 167 164 171 197 240 249 248 249 251 250 251 251 250 251 254 256 258 261 264 267 271 273 274 275 276 280 284 286 287 286 287 288 288 288 287 285 283 277 273 273 273 272 265 249 236 231 230 228 228 229 230 233 236 238 241 246 250 253
135 141 149 184 237 206 193 217 204 211 239 237 211 190 172 157 130 106 200 250 235 196 205 219 228 229 209 166 164 160 148 202 239 246 248 250 255 256 254 253 253 254 256 258 260 263 267 271 273 274 276 276 279 282 284 284 284 284 285 286 285 283 281 280 277 272 270 270 269 271 269 255 240 234 233 232 232 233 234 236 237 238 241 246 250 253
151 155 174 211 226 208 210 236 227 228 255 245 176 153 148 139 125 120 211 248 248 203 198 211 224 225 197 169 169 168 174 217 236 246 248 251 255 258 259 261 260 259 261 263 264 266 269 271 272 273 276 277 280 283 282 281 280 280 280 281 279 275 274 273 270 267 266 265 264 267 269 260 246 239 236 236 235 236 237 238 238 239 242 246 250 252
156 168 187 211 223 220 214 226 255 258 257 252 182 154 143 136 133 178 213 252 276 176 191 208 218 214 188 175 179 195 213 224 235 242 246 251 255 257 262 264 263 263 265 266 267 267 267 269 272 275 278 281 282 281 277 275 274 273 275 276 273 271 271 270 267 264 263 261 260 263 268 266 255 246 243 242 241 241 242 241 241 242 244 247 251 253
152 157 171 198 218 230 217 219 253 258 266 306 175 155 142 141 177 217 241 332 6 107 201 210 207 199 190 188 196 211 223 230 235 240 244 248 251 256 262 266 265 264 263 264 269 273 274 276 278 280 284 284 281 276 271 268 267 268 269 268 267 268 270 267 264 263 262 260 260 261 264 267 262 253 249 247 247 248 248 247 246 246 247 249 251 254
162 161 172 188 184 207 212 210 220 238 328 10 72 157 142 146 273 304 324 350 14 19 307 217 201 198 198 200 208 218 227 233 236 239 244 244 247 254 260 265 271 275 276 278 280 281 280 279 280 288 298 296 282 274 271 270 271 272 271 269 268 267 264 259 256 257 257 257 259 261 260 261 261 256 252 251 251 252 253 254 253 252 251 251 252 254
171 166 179 197 184 175 199 209 212 233 319 5 23 83 107 10 354 355 359 26 35 31 26 21 234 214 210 212 218 223 230 239 245 251 254 249 249 255 260 268 278 284 285 285 282 279 276 275 286 348 13 4 336 313 306 298 292 290 287 283 279 271 262 257 255 254 252 251 252 254 254 255 255 254 253 252 252 253 255 256 256 256 256 255 254 254
185 159 155 175 181 163 174 183 118 271 344 20 36 43 41 37 33 36 46 48 40 35 35 31 25 6 242 245 251 248 251 261 270 275 271 263 259 261 265 273 281 286 288 287 283 280 280 287 304 328 5 20 11 0 359 354 345 338 326 311 293 274 265 262 260 258 255 252 249 247 248 249 250 250 252 252 252 253 254 255 256 256 257 257 257 256
327 184 126 121 178 139 102 70 48 40 35 43 49 46 44 46 45 43 47 47 43 40 40 38 37 39 37 31 25 22 20 17 10 12 64 92 188 226 234 243 250 265 274 275 281 284 286 285 286 292 307 333 345 347 349 348 348 352 351 341 324 300 283 272 267 265 263 260 255 252 250 250 249 250 250 251 252 252 252 253 254 255 256 257 257 257
287 251 109 79 189 152 95 39 37 56 47 43 45 40 37 39 40 41 46 47 43 40 41 41 41 42 44 47 44 41 41 42 45 58 70 75 78 78 80 88 95 110 245 276 284 286 289 289 287 289 292 300 313 321 321 322 323 327 331 331 328 322 312 298 284 275 269 265 261 259 258 257 257 257 257 257 257 256 256 255 255 255 255 255 255 256
261 245 136 97 36 120 113 19 28 69 52 39 35 31 27 28 31 36 39 37 31 29 30 33 35 36 39 41 40 39 38 35 34 38 40 42 45 44 41 44 44 39 29 327 295 289 291 289 286 288 291 295 300 301 301 303 301 298 302 306 307 308 310 309 303 292 281 272 266 263 262 262 263 264 266 266 267 267 266 265 263 261 260 259 259 260
311 324 156 123 87 107 93 9 16 67 51 35 28 24 23 25 28 29 28 25 23 20 16 17 21 24 25 27 29 31 33 31 27 25 23 22 22 19 15 15 16 18 14 358 341 328 314 303 292 286 287 290 291 291 293 295 291 287 287 288 289 292 293 295 297 298 295 288 278 272 268 265 264 265 267 268 270 270 271 271 271 270 269 268 266 265
33 313 212 74 73 98 75 20 30 58 61 33 21 19 22 22 17 15 14 13 13 12 7 5 6 9 12 14 15 18 20 20 16 13 11 10 7 5 5 4 4 8 10 7 3 354 342 333 322 309 302 301 298 294 294 293 288 285 283 282 283 285 286 285 286 288 291 292 288 283 277 270 267 266 265 265 267 267 269 270 270 270 270 270 268 267
93 86 101 90 82 106 118 85 60 61 88 27 12 15 26 24 11 6 4 2 0 0 359 357 357 359 3 6 9 9 7 6 5 2 360 360 360 359 358 358 358 360 0 1 0 357 351 344 334 327 324 321 315 312 310 306 300 294 290 287 286 286 287 289 287 285 285 287 286 284 280 275 270 267 265 265 265 265 266 267 268 268 269 269 269 268